Location: *
(44.1392°N, 4.8079°E)
Time: 07:57:52
(UTC+00:00)

NOSS 2-2 (E) - Pass Details

Date: 21 June 2021
Orbit: 448 x 1757 km, 63.3° (Epoch: 30 July)

Event Time Altitude Azimuth Distance (km) Brightness Sun altitude
Exits shadow 01:23:20 54° 244° (WSW) 561 3.0 -18.6°
Maximum altitude 01:23:59 73° 308° (NW) 485 3.0 -18.5°
Drops below altitude 10° 01:27:39 10° 34° (NE) 1,719 7.1 -18.3°
Sets 01:30:00 0° 36° (NE) 2,726 8.5 -18.1°
